GW3673 Weather Reports


Display with metric or nautical units.
time (UTC)temp
F
wind
direction
speed
MPH
gust
MPH
rain 1hr
in
rain 24hr
in
rain mn
in
humidity
%
barometer
mb
20260505171524 58 26 1.0 5.0 0.00 0.00 0.00 51 1013.2
20260505170518 58 318 1.0 4.0 0.00 0.00 0.00 52 1013.2
20260505165622 58 100 1.0 6.0 0.00 0.00 0.00 53 1013.2
20260505164522 58 341 2.0 6.0 0.00 0.00 0.00 55 1013.3
20260505163539 58 94 1.0 4.0 0.00 0.00 0.00 56 1013.3
20260505162522 57 330 1.0 4.0 0.00 0.00 0.00 57 1013.3
20260505161536 57 333 2.0 4.0 0.00 0.00 0.00 58 1013.3
20260505160522 58 78 1.0 5.0 0.00 0.00 0.00 57 1013.3
20260505152520 58 99 1.0 4.0 0.00 0.00 0.00 61 1013.5
20260505151517 58 314 2.0 7.0 0.00 0.00 0.00 63 1013.4
20260505150517 58 353 0.0 2.0 0.00 0.00 0.00 65 1013.6
20260505140518 59 158 1.0 4.0 0.00 0.00 0.00 65 1013.6
20260505124519 60 334 1.0 4.0 0.00 0.00 0.00 49 1013.6
20260505123516 60 330 1.0 4.0 0.00 0.00 0.00 48 1013.6
20260505122517 60 10 1.0 3.0 0.00 0.00 0.00 49 1013.6
20260505121537 60 342 2.0 5.0 0.00 0.00 0.00 50 1013.6
20260505120517 60 49 1.0 5.0 0.00 0.00 0.00 50 1013.6
20260505115517 59 356 1.0 8.0 0.00 0.00 0.00 51 1013.7
20260505114618 60 324 2.0 5.0 0.00 0.00 0.00 51 1013.8
20260505113521 60 301 0.0 3.0 0.00 0.00 0.00 51 1013.9
20260505112518 60 329 0.0 3.0 0.00 0.00 0.00 50 1013.9
20260505111518 59 260 0.0 3.0 0.00 0.00 0.00 52 1013.9
20260505110524 60 331 1.0 4.0 0.00 0.00 0.00 51 1014.0
20260505101519 59 3 1.0 6.0 0.00 0.00 0.00 54 1014.3
20260505100522 59 321 1.0 5.0 0.00 0.00 0.00 54 1014.3
20260505095524 59 334 2.0 6.0 0.00 0.00 0.00 55 1014.3
20260505094523 58 358 1.0 5.0 0.00 0.00 0.00 57 1014.4
20260505093520 57 283 1.0 5.0 0.00 0.00 0.00 58 1014.4
20260505092520 56 326 1.0 4.0 0.00 0.00 0.00 58 1014.6
20260505091520 56 354 2.0 6.0 0.00 0.00 0.00 59 1014.6
20260505090517 56 333 2.0 4.0 0.00 0.00 0.00 59 1014.7
20260505085523 56 339 0.0 3.0 0.00 0.00 0.00 59 1014.7
20260505084522 56 348 2.0 6.0 0.00 0.00 0.00 58 1014.7
20260505083518 56 334 1.0 4.0 0.00 0.00 0.00 58 1014.7
20260505082518 56 331 1.0 5.0 0.00 0.00 0.00 58 1014.8
20260505081527 56 331 1.0 4.0 0.00 0.00 0.00 58 1014.8
20260505080538 56 12 1.0 3.0 0.00 0.00 0.00 58 1014.7
20260505075519 56 65 0.0 3.0 0.00 0.00 0.00 58 1014.8
20260505074519 55 38 1.0 4.0 0.00 0.01 0.00 58 1014.8
20260505073519 56 65 1.0 8.0 0.00 0.01 0.00 57 1014.8
20260505072519 55 323 1.0 5.0 0.00 0.01 0.00 60 1014.9
20260505071519 55 317 1.0 4.0 0.00 0.01 0.00 59 1014.8
20260505070519 55 7 1.0 4.0 0.00 0.01 0.00 59 1014.7
20260505065522 53 342 0.0 2.0 0.00 0.01 0.00 67 1014.6
20260505064523 53 329 1.0 3.0 0.00 0.01 0.00 70 1014.5
20260505063540 52 315 0.0 2.0 0.00 0.01 0.00 77 1014.6
20260505062520 51 132 1.0 4.0 0.00 0.01 0.00 80 1014.5
20260505061520 50 33 0.0 2.0 0.00 0.01 0.00 91 1014.6
20260505060520 50 0.0 0.0 0.00 0.01 0.00 93 1014.5
20260505055520 50 0.0 0.0 0.00 0.01 0.00 92 1014.5
20260505054520 50 0.0 0.0 0.00 0.01 0.00 92 1014.5
20260505053626 50 0.0 0.0 0.00 0.01 0.00 92 1014.5
20260505052521 50 0.0 0.0 0.00 0.01 0.00 92 1014.6
20260505051519 51 0.0 0.0 0.00 0.01 0.00 92 1014.5
20260505050518 51 0.0 0.0 0.00 0.01 0.00 92 1014.6
20260505041516 51 0.0 0.0 0.00 0.01 0.00 88 1014.5
20260505040516 52 0.0 0.0 0.00 0.01 0.00 87 1014.3
20260505035525 52 325 0.0 0.0 0.00 0.01 0.00 87 1014.2
20260505034519 52 26 0.0 3.0 0.00 0.01 0.00 88 1014.2
20260505033600 51 319 1.0 3.0 0.00 0.01 0.00 89 1014.3
20260505032517 51 327 0.0 3.0 0.00 0.01 0.00 90 1014.4
20260505031537 51 127 0.0 2.0 0.00 0.01 0.00 91 1014.5
20260505030540 51 143 0.0 2.0 0.00 0.01 0.00 93 1014.4
20260505025520 50 130 0.0 3.0 0.00 0.01 0.00 95 1014.5
20260505024520 49 110 0.0 3.0 0.00 0.01 0.00 96 1014.5
20260505023521 48 137 0.0 2.0 0.00 0.01 0.00 96 1014.6
20260505022518 48 0.0 0.0 0.00 0.01 0.00 96 1014.6
20260505021541 48 0.0 0.0 0.00 0.01 0.00 95 1014.6
20260505020518 48 0.0 0.0 0.00 0.01 0.00 95 1014.6
20260505015518 48 0.0 0.0 0.00 0.01 0.00 95 1014.6
20260505014539 48 0.0 0.0 0.00 0.01 0.00 94 1014.6
20260505013519 48 0.0 0.0 0.00 0.01 0.00 94 1014.7
20260505012519 49 0.0 0.0 0.00 0.01 0.00 94 1014.8
20260505011519 49 0.0 0.0 0.00 0.01 0.00 94 1014.8
20260505010519 49 0.0 0.0 0.00 0.01 0.00 93 1014.8
20260505005519 50 0.0 0.0 0.00 0.01 0.00 93 1014.8
20260505004520 50 0.0 0.0 0.00 0.01 0.00 92 1014.8
20260505003517 51 0.0 0.0 0.00 0.01 0.00 92 1014.8
20260505002517 51 0.0 0.0 0.00 0.01 0.00 91 1014.9
20260505001517 51 0.0 0.0 0.00 0.01 0.00 92 1014.9
20260505000517 51 0.0 0.0 0.00 0.01 0.00 93 1015.0
20260504235537 51 0.0 0.0 0.00 0.01 0.00 95 1015.1
20260504234518 50 89 0.0 4.0 0.00 0.01 0.00 96 1015.2
20260504233658 50 154 0.0 0.0 0.00 0.01 0.00 95 1015.3
20260504232521 50 0.0 0.0 0.00 0.01 0.00 95 1015.2
20260504231518 50 0.0 0.0 0.00 0.01 0.00 95 1015.2
20260504230518 50 0.0 0.0 0.00 0.01 0.00 94 1015.3
20260504225518 50 0.0 0.0 0.00 0.01 0.01 94 1015.2
20260504224538 51 0.0 0.0 0.00 0.01 0.01 94 1015.2
20260504223622 51 0.0 0.0 0.00 0.01 0.01 94 1015.2
20260504222519 51 0.0 0.0 0.00 0.01 0.01 93 1015.2
20260504221519 52 0.0 0.0 0.00 0.01 0.01 93 1015.2
20260504220559 52 0.0 0.0 0.00 0.01 0.01 93 1015.2
20260504215519 53 0.0 0.0 0.00 0.01 0.01 93 1015.3
20260504214516 53 0.0 0.0 0.00 0.01 0.01 92 1015.2
20260504213519 53 0.0 0.0 0.00 0.01 0.01 92 1015.3
20260504212520 53 0.0 0.0 0.00 0.01 0.01 92 1015.3
20260504211520 53 0.0 0.0 0.00 0.01 0.01 91 1015.4
20260504210520 53 0.0 0.0 0.00 0.01 0.01 90 1015.4
20260504205523 53 0.0 0.0 0.00 0.01 0.01 88 1015.4
20260504204637 54 0.0 0.0 0.00 0.01 0.01 87 1015.3
20260504203517 55 233 0.0 0.0 0.00 0.01 0.01 86 1015.2
20260504202538 56 0.0 0.0 0.00 0.01 0.01 84 1015.2
20260504201518 56 0.0 0.0 0.00 0.01 0.01 82 1015.2
20260504200518 57 0.0 0.0 0.00 0.01 0.01 81 1015.1
20260504195518 58 0.0 0.0 0.00 0.01 0.01 78 1015.0
20260504194538 59 115 0.0 2.0 0.00 0.01 0.01 76 1014.9
20260504193522 59 139 0.0 1.0 0.00 0.01 0.01 75 1014.7
20260504192522 59 129 0.0 3.0 0.00 0.01 0.01 75 1014.6
20260504191519 59 130 1.0 3.0 0.00 0.01 0.01 74 1014.5
20260504190519 60 118 1.0 4.0 0.00 0.01 0.01 74 1014.4
20260504185519 60 127 1.0 5.0 0.00 0.01 0.01 73 1014.4
20260504184520 60 135 1.0 3.0 0.00 0.01 0.01 73 1014.3
20260504183520 60 126 1.0 4.0 0.00 0.01 0.01 73 1014.3
20260504182520 61 122 1.0 4.0 0.00 0.01 0.01 72 1014.2
20260504181538 61 131 0.0 3.0 0.00 0.01 0.01 72 1014.1
20260504180517 61 131 0.0 2.0 0.00 0.01 0.01 71 1014.0
20260504175517 62 117 1.0 4.0 0.00 0.01 0.01 71 1014.1
20260504174521 62 134 0.0 4.0 0.00 0.01 0.01 70 1014.0
20260504173521 63 107 1.0 4.0 0.00 0.01 0.01 68 1014.0
20260504172518 64 122 1.0 4.0 0.00 0.01 0.01 67 1014.0